Cooperstown, ND

12:06 AM CDT on June 29, 2017 (GMT -0500)
Cooperstown

Weather History for KS32 - August, 2013

Change the Weather History Date:

Tuesday, August 20, 2013

  Actual Average (KJMS) Record (KJMS)
Temperature  
Mean Temperature 78 °F -  
Max Temperature 95 °F 82 °F 102 °F (1976)
Min Temperature 62 °F 56 °F 29 °F (1907)
Cooling Degree Days 14    
Growing Degree Days 28 (Base 50)    
Moisture  
Dew Point 66 °F    
Average Humidity 71    
Maximum Humidity 100    
Minimum Humidity 30    
Precipitation  
Precipitation 0.00 in - - ()
Sea Level Pressure  
Sea Level Pressure 29.77 in    
Wind  
Wind Speed 9 mph (SW)    
Max Wind Speed 20 mph    
Max Gust Speed 24 mph    
Visibility 9 miles    
Events Thunderstorm    
Averages and records for this station are not official NWS values.
T = Trace of Precipitation, MM = Missing Value Source: NWS Daily Summary

Daily Weather History Graph

Daily Weather History Graph

Search for Another Location

Airport or City:

Trip Planner

Search our weather history database for the weather conditions in past years. The results will help you decide how hot, cold, wet, or windy it might be!

Date:

Astronomy

Aug. 20, 2013 Rise Set
Actual Time 6:35 AM CDT 8:34 PM CDT
Civil Twilight 6:02 AM CDT 9:07 PM CDT
Nautical Twilight 5:21 AM CDT 9:48 PM CDT
Astronomical Twilight 4:36 AM CDT 10:33 PM CDT
Moon 8:02 PM CDT (8/20) 6:09 AM CDT (8/20)
Length of Visible Light 15h 05m
Length of Day
13h 59m
Full, 100% of the Moon is Illuminated
Aug 20
Full
Aug 20
Full
Aug 28
Last Quarter
Sep 5
New
Sep 12
First Quarter

Hourly Weather History & Observations

Time (CDT) Temp. Heat Index Dew Point Humidity Pressure Visibility Wind Dir Wind Speed Gust Speed Precip Events Conditions
12:15 AM - - - N/A% - - North - - N/A   Unknown
12:35 AM 69.8 °F - 69.8 °F 100% 29.79 in 10.0 mi South 10.4 mph - N/A   Unknown
12:55 AM - - - N/A% 29.79 in - SSW 8.1 mph - N/A   Unknown
1:15 AM 68.0 °F - 68.0 °F 100% 29.79 in 10.0 mi South 9.2 mph - N/A   Unknown
1:35 AM 71.6 °F - 71.6 °F 100% 29.79 in 10.0 mi SSW 9.2 mph - N/A   Clear
1:55 AM 71.6 °F - 71.6 °F 100% 29.79 in 10.0 mi SSW 9.2 mph - N/A   Clear
2:15 AM 71.6 °F - 71.6 °F 100% 29.79 in 10.0 mi SW 11.5 mph - N/A   Clear
2:35 AM 71.6 °F - 71.6 °F 100% 29.78 in 10.0 mi SSW 10.4 mph - N/A   Clear
2:55 AM 71.6 °F - 71.6 °F 100% 29.78 in 10.0 mi SSW 9.2 mph - N/A   Clear
3:15 AM 71.6 °F - 71.6 °F 100% 29.77 in 10.0 mi SSW 9.2 mph - N/A   Clear
3:35 AM 71.6 °F - 71.6 °F 100% 29.77 in 10.0 mi SSW 5.8 mph - N/A   Partly Cloudy
3:55 AM 69.8 °F - 69.8 °F 100% 29.77 in 10.0 mi SSW 9.2 mph - N/A   Scattered Clouds
4:15 AM 71.6 °F - 71.6 °F 100% 29.77 in 10.0 mi SW 9.2 mph - N/A   Partly Cloudy
4:35 AM 71.6 °F - 71.6 °F 100% 29.77 in 10.0 mi SW 12.7 mph - N/A   Clear
4:55 AM 71.6 °F - 71.6 °F 100% 29.77 in 10.0 mi SSW 11.5 mph - N/A   Clear
5:15 AM 71.6 °F - 71.6 °F 100% 29.77 in 10.0 mi SW 10.4 mph - N/A   Clear
5:35 AM 68.0 °F - 68.0 °F 100% 29.77 in 10.0 mi SW 8.1 mph - N/A   Clear
5:55 AM 68.0 °F - 68.0 °F 100% 29.77 in 8.0 mi SW 6.9 mph - N/A   Clear
6:15 AM 66.2 °F - 66.2 °F 100% 29.78 in 7.0 mi SSW 4.6 mph - N/A   Clear
6:35 AM 64.4 °F - 64.4 °F 100% 29.78 in 3.0 mi SSW 6.9 mph - N/A   Clear
6:55 AM 64.4 °F - 64.4 °F 100% 29.78 in 3.0 mi SSW 5.8 mph - N/A   Clear
7:15 AM 62.6 °F - 62.6 °F 100% 29.79 in 2.5 mi South 5.8 mph - N/A   Clear
7:35 AM 64.4 °F - 64.4 °F 100% 29.79 in 3.0 mi SSW 4.6 mph - N/A   Clear
7:55 AM 66.2 °F - 66.2 °F 100% 29.79 in 4.0 mi Calm Calm - N/A   Clear
8:15 AM 68.0 °F - 68.0 °F 100% 29.79 in 5.0 mi SSW 4.6 mph - N/A   Clear
8:35 AM 69.8 °F - 69.8 °F 100% 29.79 in 8.0 mi SW 3.5 mph - N/A   Clear
8:55 AM 71.6 °F - 71.6 °F 100% 29.80 in 10.0 mi SW 4.6 mph - N/A   Clear
9:15 AM 73.4 °F - 69.8 °F 88% 29.80 in 10.0 mi WSW 3.5 mph - N/A   Clear
9:35 AM 75.2 °F - 69.8 °F 83% 29.80 in 10.0 mi WSW 4.6 mph - N/A   Clear
9:55 AM 77.0 °F - 68.0 °F 74% 29.80 in 10.0 mi WSW 4.6 mph - N/A   Clear
10:15 AM 77.0 °F - 68.0 °F 74% 29.80 in 10.0 mi SSW 4.6 mph - N/A   Clear
10:35 AM 80.6 °F 83.2 °F 68.0 °F 65% 29.80 in 10.0 mi SSW 5.8 mph - N/A   Clear
10:55 AM 82.4 °F 85.4 °F 68.0 °F 62% 29.80 in 10.0 mi SW 8.1 mph - N/A   Clear
11:15 AM 84.2 °F 87.3 °F 68.0 °F 58% 29.80 in 10.0 mi SW 5.8 mph - N/A   Clear
11:35 AM 84.2 °F 85.6 °F 64.4 °F 51% 29.79 in 10.0 mi SSE 4.6 mph - N/A   Clear
11:55 AM 86.0 °F 88.2 °F 66.2 °F 51% 29.79 in 10.0 mi South 6.9 mph - N/A   Clear
12:15 PM 89.6 °F 91.1 °F 64.4 °F 43% 29.79 in 10.0 mi South 4.6 mph - N/A   Unknown
12:35 PM 91.4 °F 92.1 °F 62.6 °F 38% 29.79 in 10.0 mi South 9.2 mph - N/A   Clear
12:55 PM 91.4 °F 92.1 °F 62.6 °F 38% 29.78 in 10.0 mi South 6.9 mph - N/A   Clear
1:15 PM 91.4 °F 91.4 °F 60.8 °F 36% 29.77 in 10.0 mi WSW 8.1 mph - N/A   Unknown
1:35 PM 93.2 °F 91.9 °F 57.2 °F 30% 29.76 in 10.0 mi SSW 8.1 mph - N/A   Clear
1:55 PM 93.2 °F 92.6 °F 59.0 °F 32% 29.75 in 10.0 mi SSW 12.7 mph 17.3 mph N/A   Unknown
2:15 PM 93.2 °F 93.3 °F 60.8 °F 34% 29.75 in 10.0 mi SSW 11.5 mph - N/A   Unknown
2:55 PM 95.0 °F 95.2 °F 60.8 °F 32% 29.74 in 10.0 mi SSW 13.8 mph 19.6 mph N/A   Unknown
3:15 PM 95.0 °F 95.2 °F 60.8 °F 32% 29.74 in 10.0 mi SW 13.8 mph 21.9 mph N/A   Unknown
3:35 PM 95.0 °F 96.0 °F 62.6 °F 34% 29.73 in 10.0 mi SW 16.1 mph 23.0 mph N/A   Unknown
3:55 PM 95.0 °F 96.0 °F 62.6 °F 34% 29.73 in 10.0 mi SSW 13.8 mph 19.6 mph N/A   Unknown
4:15 PM 95.0 °F 97.0 °F 64.4 °F 36% 29.72 in 10.0 mi SSW 16.1 mph 21.9 mph N/A   Unknown
4:35 PM 95.0 °F 97.0 °F 64.4 °F 36% 29.71 in 10.0 mi SSW 12.7 mph 23.0 mph N/A   Unknown
5:15 PM - - - N/A% - - North - - N/A   Unknown
5:35 PM - - - N/A% 29.69 in - South 18.4 mph - N/A   Unknown
5:55 PM 93.2 °F 96.2 °F 66.2 °F 41% 29.70 in - South 19.6 mph 24.2 mph N/A   Unknown
6:15 PM 93.2 °F 97.7 °F 68.0 °F 44% 29.69 in 10.0 mi South 18.4 mph 24.2 mph N/A   Unknown
6:35 PM 91.4 °F 95.4 °F 68.0 °F 46% 29.70 in 10.0 mi South 11.5 mph - N/A   Unknown
7:35 PM - - - N/A% - - North - - N/A   Unknown
7:55 PM - - - N/A% - - North - - N/A   Unknown
8:15 PM - - - N/A% - - North - - N/A   Unknown
8:35 PM - - - N/A% - - North - - N/A   Unknown
9:15 PM 82.4 °F 82.5 °F 59.0 °F 45% 29.74 in 10.0 mi WNW 6.9 mph - N/A   Unknown
9:35 PM 80.6 °F 80.8 °F 57.2 °F 45% 29.75 in 10.0 mi WNW 5.8 mph - N/A   Unknown
9:55 PM 80.6 °F 81.1 °F 59.0 °F 48% 29.75 in 10.0 mi NNW 8.1 mph - N/A   Clear
10:15 PM 75.2 °F - 59.0 °F 57% 29.75 in 10.0 mi NW 6.9 mph - N/A   Unknown
10:35 PM 75.2 °F - 62.6 °F 65% 29.76 in 10.0 mi NNW 5.8 mph - N/A   Clear
10:55 PM 75.2 °F - 62.6 °F 65% 29.77 in 10.0 mi NW 9.2 mph - N/A Thunderstorm Partly Cloudy
11:15 PM 75.2 °F - 62.6 °F 65% 29.78 in 10.0 mi NW 10.4 mph - N/A   Unknown
11:35 PM 75.2 °F - 60.8 °F 61% 29.81 in 10.0 mi WNW 10.4 mph - N/A Thunderstorm Clear
11:55 PM 75.2 °F - 62.6 °F 65% 29.80 in 10.0 mi West 8.1 mph - N/A Thunderstorm Thunderstorm